Wetterstats.de || Aktuelle Messwerte || Aktuelle Wetterkarten NEU! || Radar / Satellit NEU! || Wetterarchiv || Langzeitwerte NEU! || Klim. Kenntage || Met. Ereignisse || Agrarwerte || Echtzeitwerte

Monatsübersicht für April 2020 Diagramm
 
Wetter Information zur Wetteranzeige
Zeitraffer
Tageslänge (hh:mm)
Höchsttemperatur in °C
Uhrzeit
Tiefsttemperatur in °C
Uhrzeit
Luftfeuchte (max., in %)
Uhrzeit
Luftfeuchte (min., in %)
Uhrzeit
Luftdruck (max., in hPa)
Uhrzeit
Luftdruck (min., in hPa)
Uhrzeit
Luftdruck (Ø, in hPa)
Regenrate (max, mm/h)
Uhrzeit
Niederschlag in mm
Verdunstung in mm
Solar in W/m² (Ø)
Solar in W/m² (max.)
UV-Index (max.)
Sonnenscheindauer (hh:mm)
Windrichtung (Ø)
Windstärke (Ø in km/h)
Windstärke (Ø in bft)
Windböe (max., in km/h)
Uhrzeit
Windböe (max., in bft)
Uhrzeit
Taupunkt (max., in °C)
Uhrzeit
Taupunkt (min., in °C)
Uhrzeit
Windchill (min., in °C)
Uhrzeit
Gewitterindex (max.)
Uhrzeit
Waldbrandindex (max.)
Uhrzeit
Graslandfeuerindex (max.)
Uhrzeit
Staubsturm-Index (max.)
Uhrzeit
01
Zeitraffer
13:05
10.6
15:25 Uhr
-0.3
04:40 Uhr

65
00:00 Uhr
40
12:35 Uhr
1027.0
00:00 Uhr

1015.1
23:55 Uhr
1020.5
0,000
00:00 Uhr
0,000
1.575
222
694
11:40 Uhr
1.8
11:40 Uhr

05:22:00
0,5
0
9,7
11:55 Uhr

2
0.4
23:55 Uhr
-6.5
05:40 Uhr
-0.3
04:40 Uhr
0
00:00 Uhr
2.4
15:15 Uhr
4.6
15:45 Uhr
0.0
00:00 Uhr
02
Zeitraffer
13:09
10.9
16:20 Uhr
5.6
05:25 Uhr

76
07:50 Uhr
42
16:25 Uhr
1015.2
00:00 Uhr

1005.8
23:30 Uhr
1010.9
0,000
00:00 Uhr
0,000
0.965
104
307
12:10 Uhr
1.3
12:05 Uhr

00:00:00
0,7
0
11,3
16:30 Uhr

2
2.6
09:15 Uhr
-1.6
16:45 Uhr
5.6
05:25 Uhr
0
00:00 Uhr
3.0
16:25 Uhr
5.1
15:55 Uhr
0.6
15:55 Uhr
03
Zeitraffer
13:14
11.3
11:25 Uhr
5.5
07:10 Uhr

72
03:55 Uhr
35
16:10 Uhr
1018.8
23:40 Uhr

1005.4
01:15 Uhr
1011.6
0,000
00:00 Uhr
0,000
1.498
182
773
12:25 Uhr
2.2
12:40 Uhr

04:09:00
1,2
0
9,7
05:05 Uhr

2
2.6
03:55 Uhr
-4.1
16:25 Uhr
5.5
07:10 Uhr
0
00:00 Uhr
3.3
16:25 Uhr
5.5
16:55 Uhr
1.0
18:20 Uhr
04
Zeitraffer
13:17
13.4
12:45 Uhr
5.3
07:10 Uhr

66
06:45 Uhr
33
15:00 Uhr
1029.6
23:50 Uhr

1018.9
00:00 Uhr
1024.9
0,000
00:00 Uhr
0,000
2.007
256
680
12:50 Uhr
2.4
12:45 Uhr

06:10:00
0,7
0
11,3
15:15 Uhr

2
0.3
08:20 Uhr
-3.5
16:30 Uhr
5.3
07:10 Uhr
0
00:00 Uhr
3.6
16:25 Uhr
5.7
14:00 Uhr
1.5
18:50 Uhr
05
Zeitraffer
13:21
15.8
16:50 Uhr
2.3
06:30 Uhr

71
04:40 Uhr
32
16:25 Uhr
1032.1
09:00 Uhr

1026.2
23:45 Uhr
1029.5
0,000
00:00 Uhr
0,000
2.565
249
615
12:50 Uhr
2.3
12:45 Uhr

07:21:00
4,2
1
32,2
16:25 Uhr

5
0.4
11:25 Uhr
-2.7
06:20 Uhr
2.3
06:30 Uhr
0
00:00 Uhr
3.9
18:05 Uhr
5.9
14:00 Uhr
2.7
15:10 Uhr
06
Zeitraffer
13:26
21.6
16:30 Uhr
6.1
06:30 Uhr

56
06:30 Uhr
24
15:30 Uhr
1026.2
00:00 Uhr

1022.7
17:35 Uhr
1024.2
0,000
00:00 Uhr
0,000
2.946
261
629
12:45 Uhr
2.6
12:25 Uhr

07:17:00
3,6
1
29,0
10:50 Uhr

4
2.0
22:50 Uhr
-2.2
05:50 Uhr
5.9
06:05 Uhr
0
00:00 Uhr
5.9
00:00 Uhr
5.9
00:00 Uhr
2.6
10:40 Uhr
07
Zeitraffer
13:30
19.9
14:25 Uhr
7.5
06:45 Uhr

69
06:45 Uhr
38
20:15 Uhr
1032.7
21:45 Uhr

1024.0
00:00 Uhr
1029.2
0,000
00:00 Uhr
0,000
2.388
243
599
13:00 Uhr
2.5
13:00 Uhr

07:03:00
2,0
0
22,5
15:10 Uhr

4
10.2
12:20 Uhr
0.7
22:00 Uhr
7.5
06:45 Uhr
0
00:00 Uhr
5.9
00:00 Uhr
5.9
00:00 Uhr
2.2
15:15 Uhr
08
Zeitraffer
13:33
21.9
15:55 Uhr
6.4
06:25 Uhr

68
06:45 Uhr
28
18:20 Uhr
1032.8
00:35 Uhr

1021.9
23:50 Uhr
1027.8
0,000
00:00 Uhr
0,000
2.083
240
594
12:55 Uhr
2.1
12:35 Uhr

07:11:00
2,0
0
17,7
10:10 Uhr

3
7.6
14:30 Uhr
0.7
05:55 Uhr
6.1
07:10 Uhr
0
00:00 Uhr
5.9
00:00 Uhr
5.9
00:00 Uhr
2.0
09:25 Uhr
09
Zeitraffer
13:37
18.9
14:20 Uhr
8.6
06:40 Uhr

72
06:45 Uhr
40
12:35 Uhr
1026.4
23:50 Uhr

1020.7
03:55 Uhr
1023.1
0,000
00:00 Uhr
0,000
2.261
255
649
11:20 Uhr
2.6
12:30 Uhr

06:16:00
1,1
0
16,1
18:15 Uhr

3
6.8
18:50 Uhr
1.6
23:30 Uhr
8.6
06:40 Uhr
0
00:00 Uhr
5.9
00:00 Uhr
5.9
00:00 Uhr
1.7
18:15 Uhr
10
Zeitraffer
13:42
16.8
14:40 Uhr
4.1
06:15 Uhr

77
06:15 Uhr
33
15:25 Uhr
1027.6
07:30 Uhr

1024.2
17:40 Uhr
1026.1
0,000
00:00 Uhr
0,000
2.286
275
667
13:15 Uhr
2.7
12:55 Uhr

07:00:00
0,8
0
12,9
12:25 Uhr

2
2.5
13:10 Uhr
-0.7
21:55 Uhr
4.1
06:15 Uhr
0
00:00 Uhr
5.9
00:00 Uhr
5.9
00:00 Uhr
1.7
12:30 Uhr
11
Zeitraffer
13:46
15.1
17:55 Uhr
2.9
06:15 Uhr

78
06:15 Uhr
33
16:30 Uhr
1028.3
09:30 Uhr

1023.2
23:35 Uhr
1026.3
0,000
00:00 Uhr
0,000
2.134
254
633
12:40 Uhr
2.7
13:05 Uhr

07:28:00
1,0
0
14,5
16:30 Uhr

3
2.6
09:55 Uhr
-1.1
16:30 Uhr
2.9
06:15 Uhr
0
00:00 Uhr
5.9
00:00 Uhr
5.9
00:00 Uhr
1.8
11:50 Uhr
12
Zeitraffer
13:49
23.2
16:20 Uhr
4.2
06:00 Uhr

76
06:15 Uhr
27
12:05 Uhr
1023.2
00:00 Uhr

1010.0
23:10 Uhr
1015.9
0,000
00:00 Uhr
0,000
2.489
264
657
12:15 Uhr
2.9
12:15 Uhr

07:35:00
0,4
0
11,3
12:20 Uhr

2
6.5
21:45 Uhr
0.0
01:15 Uhr
4.2
06:00 Uhr
0
00:00 Uhr
5.9
00:00 Uhr
5.9
00:00 Uhr
1.4
14:05 Uhr
13
Zeitraffer
13:54
14.4
00:00 Uhr
5.7
21:45 Uhr

88
06:45 Uhr
32
17:50 Uhr
1017.2
23:50 Uhr

1009.0
03:30 Uhr
1013.6
7,200
06:00 Uhr
1,200
1.372
148
881
12:35 Uhr
2.5
12:30 Uhr

01:27:00
1,5
0
17,7
16:40 Uhr

3
7.3
04:35 Uhr
-7.7
20:15 Uhr
5.7
21:45 Uhr
0
00:00 Uhr
5.9
00:00 Uhr
5.9
00:00 Uhr
2.1
17:40 Uhr
14
Zeitraffer
13:58
11.3
16:40 Uhr
1.3
06:20 Uhr

81
05:35 Uhr
29
15:55 Uhr
1022.9
21:20 Uhr

1017.1
00:00 Uhr
1020.9
0,000
00:00 Uhr
0,000
1.550
212
797
11:15 Uhr
2.8
13:05 Uhr

05:26:00
1,1
0
12,9
09:55 Uhr

2
0.4
08:45 Uhr
-6.7
14:15 Uhr
1.3
06:20 Uhr
0
00:00 Uhr
5.9
00:00 Uhr
5.9
00:00 Uhr
1.5
13:00 Uhr
15
Zeitraffer
14:02
15.4
18:15 Uhr
5.3
06:45 Uhr

72
06:45 Uhr
39
19:05 Uhr
1022.9
00:10 Uhr

1019.1
22:55 Uhr
1021.3
0,000
00:00 Uhr
0,000
1.270
148
659
13:35 Uhr
3.0
13:00 Uhr

01:16:00
0,8
0
11,3
14:40 Uhr

2
3.0
11:55 Uhr
-1.2
00:00 Uhr
5.3
06:45 Uhr
0
00:00 Uhr
5.9
00:00 Uhr
5.9
00:00 Uhr
1.4
11:10 Uhr


 
Wetter Information zur Wetteranzeige
Zeitraffer
Tageslänge (hh:mm)
Höchsttemperatur in °C
Uhrzeit
Tiefsttemperatur in °C
Uhrzeit
Luftfeuchte (max., in %)
Uhrzeit
Luftfeuchte (min., in %)
Uhrzeit
Luftdruck (max., in hPa)
Uhrzeit
Luftdruck (min., in hPa)
Uhrzeit
Luftdruck (Ø, in hPa)
Regenrate (max, mm/h)
Uhrzeit
Niederschlag in mm
Verdunstung in mm
Solar in W/m² (Ø)
Solar in W/m² (max.)
UV-Index (max.)
Sonnenscheindauer (hh:mm)
Windrichtung (Ø)
Windstärke (Ø in km/h)
Windstärke (Ø in bft)
Windböe (max., in km/h)
Uhrzeit
Windböe (max., in bft)
Uhrzeit
Taupunkt (max., in °C)
Uhrzeit
Taupunkt (min., in °C)
Uhrzeit
Windchill (min., in °C)
Uhrzeit
Gewitterindex (max.)
Uhrzeit
Waldbrandindex (max.)
Uhrzeit
Graslandfeuerindex (max.)
Uhrzeit
Staubsturm-Index (max.)
Uhrzeit
16
Zeitraffer
14:05
18.4
16:20 Uhr
6.2
06:05 Uhr

69
05:55 Uhr
40
12:30 Uhr
1019.1
00:00 Uhr

1014.6
19:25 Uhr
1016.8
0,000
00:00 Uhr
0,000
2.413
282
671
12:50 Uhr
3.0
12:50 Uhr

07:27:00
0,9
0
16,1
22:10 Uhr

3
7.1
19:10 Uhr
0.7
04:30 Uhr
6.2
06:05 Uhr
0
00:00 Uhr
5.9
00:00 Uhr
5.9
00:00 Uhr
2.0
22:35 Uhr
17
Zeitraffer
14:09
17.2
13:05 Uhr
6.8
06:15 Uhr

79
06:25 Uhr
35
14:35 Uhr
1018.8
08:40 Uhr

1016.2
00:00 Uhr
1017.7
0,000
00:00 Uhr
0,000
2.388
268
711
11:10 Uhr
2.9
12:50 Uhr

07:04:00
2,1
1
22,5
15:30 Uhr

4
5.2
09:20 Uhr
0.1
22:40 Uhr
6.8
06:15 Uhr
0
00:00 Uhr
5.9
00:00 Uhr
5.9
00:00 Uhr
2.0
15:30 Uhr
18
Zeitraffer
14:14
16.2
15:55 Uhr
4.8
06:10 Uhr

57
06:05 Uhr
26
15:40 Uhr
1019.9
07:25 Uhr

1016.8
17:55 Uhr
1018.6
0,000
00:00 Uhr
0,000
2.946
283
695
12:45 Uhr
3.3
12:55 Uhr

07:44:00
4,3
1
24,1
21:35 Uhr

4
0.0
00:00 Uhr
-4.9
21:00 Uhr
4.8
06:10 Uhr
0
00:00 Uhr
5.9
00:00 Uhr
5.9
00:00 Uhr
2.5
21:20 Uhr
19
Zeitraffer
14:18
12.7
17:30 Uhr
5.6
06:00 Uhr

57
05:40 Uhr
28
16:10 Uhr
1025.7
23:25 Uhr

1018.8
00:00 Uhr
1022.4
0,000
00:00 Uhr
0,000
3.023
280
694
12:35 Uhr
2.7
12:55 Uhr

07:12:00
7,3
2
30,6
13:00 Uhr

5
-0.4
22:15 Uhr
-5.7
14:50 Uhr
0.6
06:50 Uhr
0
00:00 Uhr
5.9
00:00 Uhr
5.9
00:00 Uhr
3.2
10:30 Uhr
20
Zeitraffer
14:21
14.9
16:35 Uhr
4.0
06:05 Uhr

66
05:25 Uhr
36
15:50 Uhr
1027.9
10:00 Uhr

1024.6
18:05 Uhr
1026.4
0,000
00:00 Uhr
0,000
2.896
280
696
12:54 Uhr
2.7
12:25 Uhr

07:37:00
5,8
1
35,4
11:55 Uhr

5
0.8
20:20 Uhr
-1.9
01:55 Uhr
3.6
06:20 Uhr
0
00:00 Uhr
5.9
00:00 Uhr
5.9
00:00 Uhr
3.3
12:00 Uhr
21
Zeitraffer
14:25
16.6
17:25 Uhr
5.3
06:05 Uhr

66
05:50 Uhr
33
16:25 Uhr
1027.6
09:20 Uhr

1025.2
19:05 Uhr
1026.4
0,000
00:00 Uhr
0,000
3.175
282
691
12:40 Uhr
2.8
12:30 Uhr

07:36:00
7,1
2
46,7
11:05 Uhr

6
1.8
14:05 Uhr
-0.8
06:30 Uhr
0.8
07:20 Uhr
0
00:00 Uhr
5.9
00:00 Uhr
5.9
00:00 Uhr
3.9
15:45 Uhr
22
Zeitraffer
14:29
17.9
17:20 Uhr
6.1
06:00 Uhr

74
05:35 Uhr
32
17:25 Uhr
1027.8
09:30 Uhr

1024.1
18:45 Uhr
1026.1
0,000
00:00 Uhr
0,000
2.946
282
698
12:50 Uhr
3.1
12:35 Uhr

07:36:00
5,0
1
29,0
17:05 Uhr

4
4.3
10:55 Uhr
0.8
17:45 Uhr
4.7
07:55 Uhr
0
00:00 Uhr
5.9
00:00 Uhr
5.9
00:00 Uhr
2.8
15:25 Uhr
23
Zeitraffer
14:33
20.2
17:20 Uhr
6.1
05:55 Uhr

83
06:05 Uhr
31
18:20 Uhr
1026.0
07:40 Uhr

1016.2
23:55 Uhr
1022.6
0,000
00:00 Uhr
0,000
2.896
285
701
12:50 Uhr
3.5
12:50 Uhr

07:36:00
2,1
1
22,5
16:30 Uhr

4
5.5
09:25 Uhr
2.1
19:45 Uhr
6.1
05:55 Uhr
0
00:00 Uhr
5.9
00:00 Uhr
5.9
00:00 Uhr
2.3
16:35 Uhr
24
Zeitraffer
14:37
22.6
13:15 Uhr
8.4
05:35 Uhr

77
04:10 Uhr
26
18:00 Uhr
1016.2
00:00 Uhr

1005.1
19:40 Uhr
1009.1
0,000
00:00 Uhr
0,000
2.591
251
694
13:05 Uhr
3.0
12:25 Uhr

04:36:00
0,8
0
12,9
14:10 Uhr

2
6.8
09:35 Uhr
-0.7
22:35 Uhr
8.4
05:35 Uhr
0
00:00 Uhr
5.9
00:00 Uhr
5.9
00:00 Uhr
1.4
14:10 Uhr
25
Zeitraffer
14:41
15.4
15:40 Uhr
8.4
06:50 Uhr

75
08:25 Uhr
39
14:10 Uhr
1011.6
12:50 Uhr

1006.0
00:00 Uhr
1009.5
0,000
00:00 Uhr
0,000
1.930
217
861
13:45 Uhr
3.0
13:40 Uhr

02:40:00
1,4
0
19,3
09:45 Uhr

3
5.3
08:45 Uhr
1.0
14:15 Uhr
8.4
06:50 Uhr
0
00:00 Uhr
5.9
00:00 Uhr
5.9
00:00 Uhr
2.1
09:45 Uhr
26
Zeitraffer
14:45
18.4
15:55 Uhr
6.3
05:40 Uhr

79
05:40 Uhr
32
14:45 Uhr
1012.5
10:35 Uhr

1009.8
19:10 Uhr
1011.2
0,000
00:00 Uhr
0,000
1.930
211
828
11:15 Uhr
3.2
12:40 Uhr

03:46:00
0,3
0
9,7
12:10 Uhr

2
4.0
08:35 Uhr
0.7
16:05 Uhr
6.3
05:40 Uhr
0
00:00 Uhr
5.9
00:00 Uhr
5.9
00:00 Uhr
1.3
14:45 Uhr
27
Zeitraffer
14:49
22.6
16:40 Uhr
5.5
05:50 Uhr

84
05:50 Uhr
29
16:30 Uhr
1010.5
01:10 Uhr

1005.4
23:35 Uhr
1008.3
0,000
00:00 Uhr
0,000
2.769
292
701
12:50 Uhr
2.9
12:15 Uhr

07:40:00
0,5
0
16,1
15:20 Uhr

3
6.4
23:50 Uhr
2.6
01:45 Uhr
5.5
05:50 Uhr
0
00:00 Uhr
5.9
00:00 Uhr
5.9
00:00 Uhr
1.5
15:25 Uhr
28
Zeitraffer
14:52
24.1
12:50 Uhr
10.3
06:10 Uhr

74
06:15 Uhr
32
11:50 Uhr
1005.4
00:00 Uhr

1002.4
19:00 Uhr
1004.1
0,000
00:00 Uhr
0,000
2.845
276
658
12:20 Uhr
2.8
12:50 Uhr

07:08:00
1,6
0
24,1
21:40 Uhr

4
10.1
21:05 Uhr
5.5
09:30 Uhr
10.3
06:10 Uhr
2
21:05 Uhr
5.9
00:00 Uhr
5.9
00:00 Uhr
2.5
21:40 Uhr
29
Zeitraffer
14:56
17.4
15:05 Uhr
8.8
04:50 Uhr

93
21:55 Uhr
51
00:50 Uhr
1006.7
23:50 Uhr

1002.7
05:00 Uhr
1004.6
21,600
17:35 Uhr
7,800
1.194
125
672
11:25 Uhr
2.5
11:35 Uhr

00:44:00
1,9
0
22,5
03:15 Uhr

4
12.5
17:35 Uhr
2.5
01:05 Uhr
7.1
03:35 Uhr
4
21:25 Uhr
5.9
00:00 Uhr
5.9
00:00 Uhr
2.4
03:30 Uhr
30
Zeitraffer
15:00
18.4
18:05 Uhr
10.1
05:05 Uhr

94
02:45 Uhr
51
19:10 Uhr
1006.7
00:00 Uhr

1002.1
23:15 Uhr
1004.2
2,400
03:15 Uhr
0,600
1.118
127
588
12:20 Uhr
3.0
12:15 Uhr

01:32:00
0,8
0
14,5
16:05 Uhr

3
12.9
15:45 Uhr
7.5
19:40 Uhr
10.1
05:05 Uhr
3
00:00 Uhr
5.3
18:40 Uhr
5.9
01:35 Uhr
1.6
14:20 Uhr
Stationsstandorte || Wetterblog || Wissenswertes || Downloads || Seitenhistorie || Partner || Impressum / Datenschutz